Hourly Weather Barok

Today, 6 May, Thursday

Time Temperature Precipitation Wind Pressure Humidity
00:00 +9°C° 0 mm 5 mps 732 mmHg 92%
01:00 +9°C° 0 mm 5 mps 732 mmHg 94%
02:00 +8°C° 0 mm 4 mps 732 mmHg 95%
03:00 +8°C° 0.1 mm 4 mps 732 mmHg 95%
04:00 +8°C° 0.1 mm 4 mps 733 mmHg 94%
05:00 +9°C° 0.1 mm 3 mps 733 mmHg 94%
06:00 +8°C° 0 mm 4 mps 734 mmHg 90%
07:00 +8°C° 0 mm 5 mps 735 mmHg 87%
08:00 +7°C° 0 mm 6 mps 736 mmHg 84%
09:00 +8°C° 0 mm 6 mps 736 mmHg 76%
10:00 +10°C° 0 mm 6 mps 737 mmHg 67%
11:00 +11°C° 0 mm 6 mps 737 mmHg 58%
12:00 +13°C° 0 mm 6 mps 737 mmHg 53%
13:00 +13°C° 0 mm 6 mps 738 mmHg 48%
14:00 +14°C° 0 mm 5 mps 738 mmHg 43%
15:00 +14°C° 0 mm 5 mps 738 mmHg 43%
16:00 +14°C° 0 mm 4 mps 738 mmHg 43%
17:00 +14°C° 0 mm 3 mps 738 mmHg 43%
18:00 +12°C° 0 mm 3 mps 738 mmHg 49%
19:00 +12°C° 0 mm 2 mps 739 mmHg 56%
20:00 +10°C° 0 mm 2 mps 739 mmHg 62%
21:00 +10°C° 0 mm 1 mps 739 mmHg 64%
22:00 +9°C° 0 mm 1 mps 739 mmHg 66%
23:00 +9°C° 0 mm 1 mps 739 mmHg 68%

Tomorrow, 7 May, Friday

Time Temperature Precipitation Wind Pressure Humidity
00:00 +8°C° 0 mm 1 mps 739 mmHg 70%
01:00 +7°C° 0 mm 2 mps 739 mmHg 71%
02:00 +7°C° 0 mm 2 mps 739 mmHg 73%
03:00 +7°C° 0 mm 2 mps 738 mmHg 74%
04:00 +7°C° 0 mm 2 mps 738 mmHg 74%
05:00 +8°C° 0 mm 3 mps 738 mmHg 74%
06:00 +8°C° 0 mm 4 mps 737 mmHg 74%
07:00 +9°C° 0 mm 5 mps 737 mmHg 73%
08:00 +11°C° 0 mm 7 mps 737 mmHg 73%
09:00 +12°C° 0 mm 7 mps 737 mmHg 69%
10:00 +14°C° 0 mm 7 mps 736 mmHg 65%
11:00 +16°C° 0 mm 7 mps 736 mmHg 61%
12:00 +15°C° 0.2 mm 6 mps 736 mmHg 65%
13:00 +15°C° 0.2 mm 5 mps 735 mmHg 69%
14:00 +15°C° 0.2 mm 4 mps 735 mmHg 73%
15:00 +15°C° 0.3 mm 4 mps 734 mmHg 74%
16:00 +15°C° 0.3 mm 4 mps 734 mmHg 74%
17:00 +15°C° 0.3 mm 4 mps 733 mmHg 74%
18:00 +14°C° 0.1 mm 3 mps 733 mmHg 77%
19:00 +13°C° 0.1 mm 3 mps 734 mmHg 80%
20:00 +13°C° 0.1 mm 3 mps 734 mmHg 83%
21:00 +12°C° 0 mm 3 mps 734 mmHg 83%
22:00 +11°C° 0 mm 3 mps 734 mmHg 83%
23:00 +11°C° 0 mm 4 mps 735 mmHg 83%

Day after tomorrow, 8 May, Saturday

Time Temperature Precipitation Wind Pressure Humidity
00:00 +10°C° 0.4 mm 4 mps 735 mmHg 84%
01:00 +9°C° 0.4 mm 5 mps 735 mmHg 85%
02:00 +8°C° 0.4 mm 5 mps 736 mmHg 86%
03:00 +7°C° 0.1 mm 5 mps 737 mmHg 85%
04:00 +5°C° 0.1 mm 6 mps 737 mmHg 83%
05:00 +4°C° 0.1 mm 6 mps 738 mmHg 81%
06:00 +4°C° 0 mm 7 mps 739 mmHg 78%
07:00 +4°C° 0 mm 7 mps 739 mmHg 75%
08:00 +4°C° 0 mm 7 mps 740 mmHg 72%
09:00 +6°C° 0 mm 7 mps 740 mmHg 66%
10:00 +8°C° 0 mm 7 mps 741 mmHg 59%
11:00 +9°C° 0 mm 7 mps 741 mmHg 53%
12:00 +9°C° 0 mm 7 mps 741 mmHg 53%
13:00 +9°C° 0 mm 7 mps 741 mmHg 53%
14:00 +9°C° 0 mm 7 mps 742 mmHg 53%
15:00 +9°C° 0 mm 7 mps 742 mmHg 54%
16:00 +8°C° 0 mm 7 mps 742 mmHg 55%
17:00 +8°C° 0 mm 6 mps 742 mmHg 57%
18:00 +6°C° 0 mm 5 mps 743 mmHg 61%
19:00 +5°C° 0 mm 4 mps 743 mmHg 66%
20:00 +5°C° 0 mm 2 mps 743 mmHg 71%
21:00 +5°C° 0 mm 2 mps 744 mmHg 75%
22:00 +4°C° 0 mm 2 mps 744 mmHg 79%
23:00 +4°C° 0 mm 2 mps 744 mmHg 83%

9 May, Sunday

Time Temperature Precipitation Wind Pressure Humidity
00:00 +3°C° 0 mm 2 mps 745 mmHg 85%
01:00 +3°C° 0 mm 2 mps 745 mmHg 87%
02:00 +3°C° 0 mm 2 mps 745 mmHg 88%
03:00 +3°C° 0 mm 2 mps 745 mmHg 89%
04:00 +2°C° 0 mm 2 mps 746 mmHg 89%
05:00 +2°C° 0 mm 2 mps 746 mmHg 89%
06:00 +4°C° 0 mm 3 mps 746 mmHg 81%
07:00 +7°C° 0 mm 3 mps 747 mmHg 73%
08:00 +9°C° 0 mm 3 mps 747 mmHg 65%
09:00 +10°C° 0 mm 3 mps 747 mmHg 58%
10:00 +11°C° 0 mm 3 mps 747 mmHg 52%
11:00 +13°C° 0 mm 3 mps 747 mmHg 45%
12:00 +13°C° 0 mm 3 mps 747 mmHg 43%
13:00 +14°C° 0 mm 3 mps 747 mmHg 41%
14:00 +16°C° 0 mm 2 mps 747 mmHg 39%
15:00 +16°C° 0 mm 2 mps 747 mmHg 39%
16:00 +16°C° 0 mm 1 mps 747 mmHg 39%
17:00 +16°C° 0 mm 1 mps 747 mmHg 40%
18:00 +14°C° 0 mm 1 mps 747 mmHg 45%
19:00 +12°C° 0 mm 1 mps 747 mmHg 51%
20:00 +11°C° 0 mm 1 mps 747 mmHg 56%
21:00 +9°C° 0 mm 2 mps 747 mmHg 58%
22:00 +8°C° 0 mm 2 mps 747 mmHg 60%
23:00 +8°C° 0 mm 2 mps 748 mmHg 62%

10 May, Monday

Time Temperature Precipitation Wind Pressure Humidity
00:00 +7°C° 0 mm 2 mps 748 mmHg 63%
01:00 +7°C° 0 mm 2 mps 748 mmHg 64%
02:00 +7°C° 0 mm 3 mps 748 mmHg 65%
03:00 +5°C° 0 mm 3 mps 748 mmHg 67%
04:00 +5°C° 0 mm 3 mps 747 mmHg 68%
05:00 +5°C° 0 mm 3 mps 747 mmHg 69%
06:00 +7°C° 0 mm 4 mps 748 mmHg 65%
07:00 +10°C° 0 mm 4 mps 748 mmHg 62%
08:00 +12°C° 0 mm 5 mps 748 mmHg 58%
09:00 +14°C° 0 mm 5 mps 748 mmHg 55%
10:00 +15°C° 0 mm 6 mps 748 mmHg 52%
11:00 +16°C° 0 mm 6 mps 748 mmHg 49%
12:00 +17°C° 0 mm 6 mps 747 mmHg 48%
13:00 +17°C° 0 mm 6 mps 747 mmHg 47%
14:00 +19°C° 0 mm 6 mps 747 mmHg 46%
15:00 +19°C° 0 mm 5 mps 746 mmHg 49%
16:00 +17°C° 0 mm 5 mps 746 mmHg 51%
17:00 +18°C° 0 mm 4 mps 746 mmHg 53%
18:00 +15°C° 0 mm 4 mps 746 mmHg 60%
19:00 +13°C° 0 mm 4 mps 746 mmHg 67%
20:00 +11°C° 0 mm 3 mps 746 mmHg 73%
21:00 +11°C° 0 mm 3 mps 745 mmHg 74%
22:00 +10°C° 0 mm 3 mps 745 mmHg 75%
23:00 +9°C° 0 mm 3 mps 745 mmHg 76%

11 May, Tuesday

Time Temperature Precipitation Wind Pressure Humidity
00:00 +9°C° 0 mm 3 mps 745 mmHg 76%
01:00 +8°C° 0 mm 3 mps 745 mmHg 77%
02:00 +8°C° 0 mm 3 mps 745 mmHg 77%
03:00 +7°C° 0 mm 3 mps 745 mmHg 76%
04:00 +7°C° 0 mm 3 mps 745 mmHg 75%
05:00 +7°C° 0 mm 3 mps 745 mmHg 74%
06:00 +9°C° 0 mm 3 mps 745 mmHg 69%
07:00 +11°C° 0 mm 4 mps 745 mmHg 63%
08:00 +13°C° 0 mm 4 mps 745 mmHg 58%
09:00 +14°C° 0 mm 4 mps 745 mmHg 53%
10:00 +15°C° 0 mm 4 mps 744 mmHg 48%
11:00 +18°C° 0 mm 4 mps 744 mmHg 43%
12:00 +19°C° 0 mm 4 mps 744 mmHg 44%
13:00 +19°C° 0 mm 3 mps 744 mmHg 46%
14:00 +20°C° 0 mm 3 mps 743 mmHg 48%
15:00 +20°C° 0 mm 3 mps 743 mmHg 51%
16:00 +20°C° 0 mm 3 mps 743 mmHg 54%
17:00 +20°C° 0 mm 4 mps 742 mmHg 57%
18:00 +19°C° 0 mm 4 mps 742 mmHg 66%
19:00 +17°C° 0 mm 3 mps 742 mmHg 75%
20:00 +14°C° 0 mm 3 mps 742 mmHg 84%
21:00 +13°C° 0 mm 3 mps 742 mmHg 87%
22:00 +12°C° 0 mm 3 mps 742 mmHg 90%
23:00 +11°C° 0 mm 3 mps 742 mmHg 93%
Show more